This is the latest recevied weather packets stored in our database for station/object OE6ACM-10. If no packets are shown the sender has not sent any weather packets the latest 10 day(s).
| Time | Temp. | Humidity | Pressure | Rain* | Wind** | Luminosity | Snow |
|---|---|---|---|---|---|---|---|
| 1787399660 | 25.56° C | 100% | 928.2 hPa | - | - | - | - |
| 1787399360 | 25.56° C | 100% | 928.3 hPa | - | - | - | - |
| 1787399060 | 25.56° C | 100% | 928.2 hPa | - | - | - | - |
| 1787398760 | 25.56° C | 100% | 928.3 hPa | - | - | - | - |
| 1787398460 | 25° C | 100% | 928.2 hPa | - | - | - | - |
| 1787398160 | 25° C | 100% | 928.2 hPa | - | - | - | - |
| 1787397860 | 25° C | 100% | 928.2 hPa | - | - | - | - |
| 1787397560 | 24.44° C | 100% | 928.3 hPa | - | - | - | - |
| 1787397260 | 24.44° C | 100% | 928.2 hPa | - | - | - | - |
| 1787396960 | 25° C | 100% | 928.2 hPa | - | - | - | - |
| 1787396660 | 25° C | 100% | 928.1 hPa | - | - | - | - |
| 1787396360 | 24.44° C | 100% | 928.1 hPa | - | - | - | - |
| 1787396060 | 23.89° C | 100% | 928 hPa | - | - | - | - |
| 1787395760 | 23.89° C | 100% | 928.1 hPa | - | - | - | - |
| 1787395460 | 23.89° C | 100% | 927.9 hPa | - | - | - | - |
| 1787395160 | 23.33° C | 100% | 927.9 hPa | - | - | - | - |
| 1787394860 | 23.33° C | 100% | 927.8 hPa | - | - | - | - |
| 1787394560 | 23.33° C | 100% | 927.8 hPa | - | - | - | - |
| 1787394260 | 23.33° C | 100% | 927.6 hPa | - | - | - | - |
| 1787393960 | 23.33° C | 100% | 927.7 hPa | - | - | - | - |
| 1787393660 | 23.33° C | 100% | 927.6 hPa | - | - | - | - |
| 1787393360 | 23.89° C | 100% | 927.6 hPa | - | - | - | - |
| 1787393060 | 23.33° C | 100% | 927.7 hPa | - | - | - | - |
| 1787392760 | 23.33° C | 100% | 927.7 hPa | - | - | - | - |
| 1787392460 | 23.33° C | 100% | 927.7 hPa | - | - | - | - |
* Rain since midnight (hover to see other rain measurements)
** Current wind speed in m/s (hover to see current wind gust speed)